Accueil
METAR-TAF:

METAR-TAF

Aéroports :

Meiringen, Suisse

latitude: 46-44-25N, longitude: 8-06-36E, altitude: 577 m

Observation

Le bulletin a été fait il y a 32 minutes, à 18:20 UTC
Vent 7 kt de est/sud-est, variant entre est/nord-est et sud-est
Température 9°C
Humidité 87%
Pression 1028 hPa
Visibilité 10 km ou plus

METAR: LSMM 201820Z AUTO 11007KT 060V140 9999NDV NCD 09/07 Q1028 RMK

Heure: 20:52 (18:52 UTC)


TAF: absent

Observations et prévisions météorologiques de plus de 4000 aéroports (messages METAR et TAF).

Les stations disponibles sont représentées par des disques jaunes et rouges sur la carte.

Passer la souris dessus pour voir le nom de la station.

Cliquer dessus pour voir les observations et prévisions météorologiques.

Pour changer de carte: cliquez sur les boutons verts avec une croix noire pour zoomer, sur le bouton vert avec un tiret pour effectuer un zoom arrière, ou sur les flèches vertes pour les cartes adjacentes.


METAR-TAF: